This demonstration page uses our WeatherBlox Daily Observations layout. Learn more.

Left ArrowRight Arrow

34.16533, -84.80231

Hourly Observations for March 22, 2021

Temp ( °F °C ) Dew Point ( °F °C ) Humidity (%) Winds ( mph kmh ) Pressure ( in mb ) Visibility ( mi km ) Precip ( " mm )
12:53 am 00:53 Clear 47 8.3 43 6.1 86 86 Calm 30.23 1024 10 16 0.00 0.00
1:53 am 01:53 Clear 46 7.8 42 5.6 86 86 Calm 30.23 1024 10 16 0.00 0.00
2:53 am 02:53 Clear 44 6.7 41 5 89 89 Calm 30.22 1023 10 16 0.00 0.00
4:53 am 04:53 Clear 43 6.1 39 3.9 86 86 Calm 30.20 1023 10 16 0.00 0.00
5:53 am 05:53 Clear 43 6.1 39 3.9 86 86 Calm 30.21 1023 10 16 0.00 0.00
6:53 am 06:53 Clear 42 5.6 39 3.9 89 89 Calm 30.22 1023 10 16 0.00 0.00
7:53 am 07:53 Sunny 43 6.1 38 3.3 82 82 Calm 30.22 1024 10 16 0.00 0.00
8:53 am 08:53 Sunny 50 10 42 5.6 74 74 Calm 30.22 1024 9 14 0.00 0.00
9:53 am 09:53 Sunny 58 14.4 40 4.4 51 51 VRB 7 11 30.23 1024 10 16 0.00 0.00
10:53 am 10:53 Sunny 62 16.7 42 5.6 48 48 E 8 13 30.23 1024 10 16 0.00 0.00
11:53 am 11:53 Sunny 66 18.9 44 6.7 45 45 VRB 6 9 30.22 1023 10 16 0.00 0.00
12:53 pm 12:53 Sunny 68 20 45 7.2 44 44 E 8 13 30.18 1022 9 14 0.00 0.00
1:53 pm 13:53 Sunny 69 20.6 44 6.7 41 41 undefined N/A 30.13 1020 10 16 0.00 0.00
2:53 pm 14:53 Sunny 70 21.1 43 6.1 38 38 NE 10 17 30.09 1019 10 16 0.00 0.00
3:53 pm 15:53 Sunny 70 21.1 42 5.6 37 37 E 5 7 30.06 1018 10 16 0.00 0.00
4:53 pm 16:53 Sunny 71 21.7 43 6.1 36 36 NE 7 11 30.04 1017 10 16 0.00 0.00
5:53 pm 17:53 Sunny 70 21.1 42 5.6 37 37 E 5 7 30.03 1017 10 16 0.00 0.00
6:53 pm 18:53 Sunny 69 20.6 40 4.4 35 35 E 6 9 30.02 1017 10 16 0.00 0.00
7:53 pm 19:53 Clear 65 18.3 42 5.6 43 43 Calm 30.04 1017 10 16 0.00 0.00
8:53 pm 20:53 Clear 62 16.7 42 5.6 48 48 Calm 30.04 1017 8 13 0.00 0.00
9:53 pm 21:53 Clear 57 13.9 43 6.1 60 60 Calm 30.05 1018 10 16 0.00 0.00
10:53 pm 22:53 Clear 60 15.6 42 5.6 52 52 Calm 30.05 1018 10 16 0.00 0.00
11:53 pm 23:53 Clear 55 12.8 43 6.1 64 64 Calm 30.06 1018 10 16 0.00 0.00

Powered by AerisWeather